Temperature
23 23 23 24 25 25 25 25 25 25 25 24 24 25 26 25 23 24 23 23 22 22 21 19 18 17 17 16 16 15 15 14 13 13 13 13 13 13 13 12 12 12 12 12
23 23 25 25 24 24 24 25 25 25 24 24 25 25 26 26 24 24 24 23 23 22 21 19 18 17 17 16 16 16 15 14 13 13 13 12 12 12 12 12 12 12 12 12
24 25 24 24 23 24 24 25 25 25 24 24 24 25 26 26 24 23 23 23 23 22 21 20 18 18 17 16 16 15 15 14 13 13 12 12 12 12 12 12 12 12 12 12
24 24 24 24 24 24 24 25 24 24 24 25 24 25 26 26 25 24 23 22 22 22 21 20 19 18 17 16 16 15 14 14 13 13 13 13 12 13 12 12 12 12 12 12
24 24 24 24 25 24 24 23 24 24 24 25 25 24 26 25 25 26 25 23 22 21 20 20 19 18 17 16 16 15 14 14 13 13 12 12 12 12 12 12 12 12 12 11
24 24 24 25 24 24 23 23 24 24 25 24 25 24 25 26 26 26 25 23 22 21 20 19 18 18 17 16 16 15 14 14 13 13 13 12 12 12 12 12 12 12 12 12
23 24 24 24 23 23 24 24 24 24 24 25 24 24 25 26 25 25 25 24 22 21 20 19 19 18 17 17 16 15 15 14 13 13 13 13 12 12 12 12 12 12 12 12
24 24 24 24 25 25 25 25 24 23 24 25 24 24 26 26 24 23 23 23 22 21 20 19 19 19 18 17 16 15 15 14 14 13 13 13 13 12 13 12 12 12 12 12
25 24 24 24 24 25 25 25 25 25 24 24 25 25 26 26 25 24 23 22 22 21 20 19 19 18 18 17 17 16 15 14 14 13 13 13 13 13 12 12 12 12 12 12
26 25 24 23 24 23 24 25 24 24 23 23 24 25 25 26 26 25 24 23 22 21 20 20 19 18 18 17 17 16 15 15 14 14 13 13 13 13 12 12 12 12 12 12
25 25 24 24 24 25 23 23 24 25 24 23 23 25 26 26 25 25 25 24 22 21 20 20 19 19 18 17 17 16 15 15 14 14 14 13 13 13 13 12 12 12 12 12
25 26 25 25 24 24 24 25 24 24 24 24 23 24 27 25 25 24 24 23 22 21 20 20 19 18 18 17 17 16 16 15 15 14 14 14 13 13 13 13 12 12 12 12
24 25 24 24 24 23 23 23 23 24 24 24 23 24 26 25 24 24 23 23 22 21 20 19 19 18 18 18 17 16 16 15 15 15 14 14 14 14 13 13 13 13 12 12
23 25 24 24 24 25 24 23 22 23 24 24 24 25 26 26 26 25 24 23 22 21 20 20 19 19 18 18 17 17 16 16 15 15 15 14 14 14 14 13 13 13 13 13
24 25 25 25 25 24 24 24 23 23 24 24 25 25 26 26 26 25 24 23 22 22 21 20 20 19 19 18 18 17 16 16 16 15 15 15 15 14 14 14 14 14 13 13
24 24 24 24 24 23 23 24 24 23 23 24 24 24 26 26 25 24 24 23 22 22 21 21 20 20 19 18 18 17 17 16 16 16 15 15 15 15 15 14 14 14 14 14
24 24 23 24 24 23 23 25 24 24 24 24 23 25 26 26 25 24 24 23 23 23 22 21 21 20 20 19 18 18 17 17 16 16 16 15 16 15 15 15 15 15 14 14
23 23 23 23 23 22 25 25 24 23 24 24 23 24 24 24 23 23 22 22 23 22 22 21 21 20 20 19 19 18 17 17 16 16 16 16 16 16 16 16 15 15 15 14
21 22 22 23 22 23 24 25 24 23 24 24 23 23 23 23 23 24 23 22 22 22 22 22 21 21 20 19 19 18 18 17 17 17 16 16 16 16 16 16 16 15 15 15
19 21 22 22 21 22 24 24 23 23 23 22 22 22 22 22 24 25 23 22 22 22 22 22 21 20 20 19 19 18 18 17 17 17 17 16 16 16 16 16 16 15 15 15
20 20 21 21 22 23 23 22 22 22 22 21 21 21 21 21 22 22 21 21 21 22 22 22 21 20 20 19 19 18 18 18 17 17 17 17 17 17 16 16 16 15 15 15
22 21 21 21 21 22 21 21 22 21 20 20 19 19 19 20 20 20 20 20 21 21 22 22 21 21 20 20 19 19 18 18 17 17 17 17 17 17 16 16 16 15 15 14
20 21 21 21 22 21 19 20 19 18 19 19 18 18 18 19 19 19 19 20 20 20 21 21 21 21 20 20 19 19 18 18 18 17 17 17 17 16 16 15 15 14 14 13
20 19 19 20 21 20 19 18 17 17 17 17 17 17 18 18 18 19 19 19 19 20 20 21 21 20 20 20 19 19 18 18 18 17 17 17 16 16 15 15 14 14 13 12
18 18 18 19 20 19 18 17 16 16 16 16 16 16 16 17 17 18 18 19 19 19 20 20 20 20 20 20 19 19 18 18 17 17 17 16 16 15 15 14 14 13 13 13
17 17 17 17 18 17 17 16 15 14 14 14 15 15 15 16 16 17 17 18 18 19 19 20 20 20 19 19 19 19 18 18 17 17 16 16 16 15 15 14 14 13 12 12
Wind_Speed
13 11 12 13 11 4 4 5 5 3 1 6 9 11 9 8 10 12 12 13 12 11 10 9 9 8 7 6 3 1 1 1 2 2 3 3 3 3 3 4 6 5 6 6
12 13 11 8 7 5 6 7 6 2 1 5 8 12 11 9 11 12 13 14 14 12 11 10 10 10 8 6 5 3 1 1 1 2 3 2 3 3 3 3 3 5 6 6
13 9 9 8 8 9 8 8 7 6 3 5 7 10 8 6 9 10 12 13 13 13 13 12 12 11 9 8 6 3 1 1 1 1 1 1 1 1 1 2 3 5 5 6
8 6 10 10 10 9 8 4 6 6 6 5 4 9 6 3 7 10 12 13 14 13 13 12 12 12 11 9 6 4 3 2 1 1 1 2 3 3 3 3 3 3 4 4
6 8 10 11 8 8 3 1 3 5 7 9 7 8 6 2 6 8 11 13 13 13 13 13 12 12 10 9 7 5 4 3 3 2 1 3 2 3 3 3 2 3 3 3
4 4 5 4 2 4 5 4 3 5 6 8 4 6 6 3 3 3 6 11 13 13 13 12 11 11 10 9 8 7 6 5 4 4 3 3 3 3 4 3 3 3 2 2
6 6 4 3 5 6 7 6 4 5 4 4 0 6 6 3 3 4 4 6 10 12 13 13 13 13 12 11 10 8 7 6 5 5 5 4 4 4 4 3 3 3 3 2
7 7 7 6 5 6 7 7 5 5 6 6 4 6 5 2 4 5 6 5 8 12 13 13 14 13 12 12 11 9 8 7 6 5 5 4 4 4 3 3 3 3 3 3
5 4 4 3 2 3 5 5 4 7 7 8 5 5 7 4 5 5 5 6 8 11 12 13 13 13 13 12 11 10 9 8 6 6 5 5 4 4 3 3 3 3 3 3
1 4 5 5 5 2 3 2 3 5 5 7 7 7 5 4 4 4 7 8 8 9 11 12 12 13 12 11 10 10 9 8 7 6 5 4 4 4 4 4 3 3 3 2
3 3 6 6 7 6 5 5 5 5 5 7 8 6 3 6 6 6 6 8 8 9 11 12 12 13 12 11 11 10 10 8 7 7 6 5 5 4 4 4 3 3 3 3
3 3 4 4 2 1 6 6 8 9 8 7 9 8 2 5 6 7 7 7 8 9 10 11 12 12 12 12 12 11 10 9 8 7 6 6 5 5 5 4 3 3 3 3
3 4 5 4 4 4 5 5 8 8 8 10 11 9 2 4 6 7 8 8 9 10 10 11 11 12 13 13 12 12 11 10 8 7 7 6 6 6 5 4 4 4 3 3
3 5 7 8 6 3 5 7 8 10 10 13 15 17 15 14 13 11 9 9 10 11 12 12 12 13 13 13 13 13 12 11 9 8 8 7 7 6 6 5 4 4 4 4
4 8 9 10 8 7 10 11 11 14 16 18 19 20 19 18 15 13 11 10 11 13 14 14 14 14 14 14 14 14 13 11 10 10 9 8 7 7 6 5 5 5 5 5
3 7 9 11 9 9 13 15 15 16 17 19 21 23 21 19 15 13 13 12 13 15 15 15 15 15 16 16 15 14 13 12 11 11 10 9 8 8 7 7 6 6 6 6
4 7 10 13 9 9 14 12 13 12 13 14 17 18 18 17 15 14 13 12 15 15 15 16 16 16 16 16 16 16 15 13 12 12 11 9 9 8 8 7 7 7 7 7
9 10 9 12 12 15 9 3 5 10 11 11 15 17 17 17 16 14 13 13 14 14 14 15 15 15 15 15 15 15 14 14 13 12 11 10 9 9 8 8 8 8 8 7
10 9 8 10 13 14 12 7 5 7 6 9 10 13 14 13 11 9 8 11 13 12 13 13 14 15 15 15 15 15 15 14 14 13 11 10 10 9 8 8 9 8 7 7
5 8 8 8 10 11 7 2 1 5 4 11 13 13 14 10 7 7 10 7 9 9 10 11 12 14 15 15 15 15 15 15 14 12 11 9 8 8 8 8 7 6 6 7
5 6 9 12 13 9 6 3 3 5 4 12 13 14 13 9 10 14 14 10 7 7 9 11 12 13 13 14 15 16 16 15 13 11 9 8 8 7 6 6 5 5 6 6
9 8 10 9 11 7 4 1 0 4 8 11 13 14 15 15 15 15 13 9 5 6 9 11 12 12 12 14 16 17 16 13 11 10 9 8 7 6 5 5 4 4 4 5
6 6 6 7 5 3 4 3 4 6 10 12 14 16 16 17 16 15 13 10 6 7 9 10 11 12 12 14 15 16 14 12 12 11 10 8 7 6 4 4 4 3 3 4
7 4 6 8 7 6 6 4 5 8 11 14 15 16 16 17 18 16 13 11 8 7 8 10 12 13 13 14 14 14 13 13 13 12 11 9 8 7 5 3 2 2 1 2
10 7 10 14 14 11 7 6 10 12 14 15 16 16 16 17 17 16 14 12 9 8 8 10 12 14 14 14 14 13 13 14 13 12 10 9 8 7 6 5 3 2 3 3
14 15 15 15 13 13 15 14 14 14 15 15 16 17 16 15 17 17 15 13 11 10 9 11 13 14 14 15 15 14 14 15 14 12 11 9 8 7 7 7 7 10 8 10
Wind_Direction
170 181 190 197 210 238 240 248 259 279 211 237 255 265 260 220 218 221 216 211 211 211 199 188 186 184 182 179 188 192 289 14 352 344 334 344 359 356 4 11 10 358 356 354
170 196 196 196 203 233 246 258 268 278 207 257 278 275 268 241 227 226 222 214 212 206 197 191 193 191 190 185 194 202 148 35 16 9 352 347 338 340 3 352 6 4 5 0
181 180 177 187 204 225 244 260 282 294 293 244 286 278 258 231 226 226 227 223 213 207 203 196 195 194 190 189 192 191 157 137 103 38 343 327 325 293 335 9 10 7 4 6
182 157 180 198 213 231 246 273 272 271 272 282 279 297 289 227 227 222 218 214 212 205 205 198 194 191 193 190 186 190 177 174 147 222 307 337 340 352 1 346 357 359 7 7
172 178 190 208 220 226 259 56 240 255 267 279 258 278 289 213 243 223 212 209 207 201 200 197 194 190 189 183 183 190 186 191 194 231 264 283 309 335 335 327 339 339 9 3
133 168 208 209 162 192 155 172 187 225 257 270 284 273 286 259 253 235 205 206 204 200 197 195 188 184 183 182 183 189 195 202 208 229 248 265 294 304 317 319 332 329 348 354
162 169 167 170 159 162 199 230 248 245 245 277 123 264 270 293 267 268 253 214 202 197 193 189 184 185 186 186 188 193 199 208 215 230 246 255 271 290 299 313 327 324 331 338
182 178 183 195 219 202 210 241 269 290 293 301 251 259 276 288 264 267 256 232 198 193 193 191 189 188 189 188 190 196 202 212 218 231 242 253 258 268 290 300 310 317 324 333
191 153 139 180 221 221 198 227 286 286 291 289 277 273 286 248 251 238 226 209 199 194 193 194 191 191 190 189 191 196 202 211 217 227 237 244 251 260 275 277 290 306 314 318
223 163 150 151 158 68 302 185 204 258 289 292 291 285 287 317 308 240 219 212 203 196 195 195 191 192 191 190 190 193 202 210 215 219 228 241 250 250 263 274 282 296 307 310
245 201 161 182 215 214 177 200 232 252 266 282 297 304 331 308 311 284 243 221 209 200 197 194 192 191 190 189 189 193 199 207 211 218 224 232 234 242 245 253 262 270 280 278
232 259 216 194 134 326 241 241 233 257 264 259 283 291 307 264 285 279 259 231 215 207 201 197 193 189 189 192 193 197 200 204 208 215 221 229 228 230 239 234 240 254 267 281
192 251 252 203 188 191 222 227 235 257 271 262 264 276 197 247 271 265 250 234 215 206 201 197 194 193 193 194 196 197 202 204 203 208 219 224 224 227 232 230 230 245 251 260
248 255 268 280 301 283 245 225 221 235 259 267 263 275 283 281 278 272 256 240 223 210 203 200 197 197 198 197 199 197 201 202 202 204 216 222 222 224 228 229 232 239 241 246
250 268 268 274 280 267 266 261 238 239 261 271 278 281 282 286 287 281 267 247 225 215 208 204 202 201 198 198 200 200 198 199 202 207 215 221 223 221 223 226 229 235 238 240
261 272 275 271 269 263 267 268 262 255 261 268 275 278 282 285 284 274 260 243 228 220 212 207 204 203 200 198 198 198 198 197 200 208 215 215 219 218 220 227 227 230 234 240
258 267 276 278 281 278 270 266 264 258 254 264 275 284 294 293 284 276 267 247 234 225 212 205 203 202 201 199 198 198 198 196 201 208 213 212 216 219 224 225 227 230 233 235
257 259 266 276 278 268 280 301 265 264 271 275 278 290 299 300 295 281 266 251 240 228 214 205 201 199 198 197 196 197 193 195 201 208 211 212 214 220 222 224 228 231 234 233
236 242 253 262 265 270 278 271 244 256 283 352 328 319 322 321 300 278 266 248 241 231 214 203 198 194 193 193 192 191 192 197 202 207 209 211 214 218 222 225 231 233 234 237
208 225 241 247 258 266 283 333 268 255 250 15 358 348 343 340 321 335 347 301 252 229 207 194 188 190 190 190 189 193 195 197 203 205 206 208 213 217 221 226 233 231 231 241
203 214 233 249 257 264 317 338 213 241 331 359 355 351 348 337 318 320 321 310 271 224 199 185 182 185 186 183 186 195 198 200 199 196 196 198 203 211 217 223 226 232 238 247
256 251 243 248 252 257 30 57 189 6 358 351 351 349 341 331 324 324 322 316 283 225 198 186 182 184 181 181 188 197 200 193 183 179 184 187 192 197 198 205 220 232 241 247
250 266 271 251 270 37 27 20 18 353 340 343 340 338 335 330 330 328 323 313 287 238 208 195 189 181 179 185 193 199 191 178 173 174 176 179 178 178 183 191 203 220 235 254
260 277 269 269 267 298 313 332 342 340 333 331 330 329 328 326 325 323 320 310 287 248 218 201 191 188 187 187 193 195 178 174 174 176 175 174 175 169 163 161 177 200 238 257
277 279 273 273 281 294 279 315 329 327 325 325 325 324 324 321 318 317 312 307 290 259 228 210 205 201 194 184 185 183 176 175 175 174 173 172 170 164 155 135 92 100 67 36
258 262 266 272 288 292 294 311 320 319 319 322 322 321 322 319 316 314 308 303 290 265 237 220 214 207 198 187 183 179 177 176 176 175 174 170 166 161 154 141 115 68 76 75
Height
1495 1497 1500 1499 1498 1499 1499 1501 1502 1500 1500 1503 1501 1498 1495 1499 1502 1503 1505 1507 1510 1513 1516 1518 1519 1520 1521 1522 1522 1523 1522 1521 1519 1519 1518 1517 1517 1515 1514 1512 1510 1508 1507 1505
1495 1496 1493 1495 1499 1501 1501 1502 1500 1499 1501 1501 1498 1495 1491 1493 1497 1498 1500 1503 1506 1510 1513 1515 1517 1518 1519 1520 1521 1522 1521 1520 1519 1518 1518 1517 1515 1515 1513 1512 1510 1509 1507 1505
1490 1491 1494 1498 1500 1502 1500 1501 1499 1501 1501 1500 1500 1494 1488 1489 1493 1495 1497 1499 1502 1506 1509 1512 1514 1516 1517 1518 1520 1520 1520 1519 1518 1517 1517 1516 1516 1515 1514 1513 1511 1509 1507 1505
1489 1493 1496 1497 1498 1498 1500 1498 1500 1502 1502 1498 1501 1501 1486 1485 1489 1491 1493 1496 1498 1502 1505 1508 1511 1512 1514 1517 1518 1519 1519 1518 1518 1517 1517 1517 1516 1515 1514 1513 1511 1509 1507 1506
1492 1493 1495 1496 1495 1497 1498 1501 1500 1500 1499 1499 1496 1500 1487 1484 1485 1484 1487 1491 1495 1498 1502 1505 1507 1510 1512 1514 1515 1516 1517 1517 1517 1516 1516 1516 1516 1515 1514 1512 1511 1510 1508 1506
1492 1494 1494 1493 1497 1498 1502 1502 1501 1499 1498 1504 1496 1500 1492 1480 1481 1480 1483 1487 1491 1495 1498 1502 1504 1507 1509 1511 1512 1514 1515 1515 1515 1515 1516 1515 1515 1514 1513 1512 1511 1510 1509 1507
1494 1494 1495 1497 1498 1501 1500 1501 1506 1505 1505 1501 1496 1499 1489 1477 1480 1481 1483 1485 1488 1492 1495 1498 1501 1503 1506 1508 1510 1511 1513 1514 1514 1514 1515 1515 1514 1513 1513 1512 1511 1510 1509 1507
1494 1497 1492 1494 1493 1494 1495 1495 1506 1513 1508 1498 1495 1495 1481 1477 1480 1482 1483 1484 1486 1489 1492 1495 1498 1500 1503 1506 1507 1509 1511 1512 1512 1513 1513 1513 1513 1512 1512 1511 1510 1509 1508 1507
1488 1493 1492 1493 1494 1492 1495 1494 1492 1498 1499 1504 1491 1485 1477 1475 1477 1479 1480 1482 1484 1486 1488 1492 1495 1498 1500 1503 1505 1507 1508 1510 1511 1511 1512 1512 1512 1511 1511 1510 1509 1509 1507 1506
1483 1490 1492 1495 1495 1497 1494 1492 1497 1500 1507 1508 1497 1490 1483 1474 1474 1475 1478 1480 1482 1484 1486 1489 1492 1494 1498 1500 1502 1504 1506 1508 1509 1509 1510 1510 1510 1510 1509 1509 1508 1507 1506 1505
1483 1486 1493 1493 1493 1491 1497 1498 1494 1494 1497 1506 1504 1491 1474 1474 1474 1474 1475 1477 1480 1482 1484 1486 1489 1492 1495 1497 1500 1502 1504 1505 1507 1508 1508 1508 1509 1508 1508 1507 1507 1506 1505 1504
1485 1483 1487 1488 1489 1491 1490 1490 1492 1498 1496 1496 1499 1490 1469 1473 1473 1474 1474 1475 1477 1479 1481 1483 1486 1489 1491 1494 1497 1499 1501 1503 1504 1505 1506 1507 1507 1507 1507 1507 1506 1505 1505 1504
1486 1486 1492 1493 1495 1493 1491 1491 1491 1490 1491 1492 1497 1486 1468 1471 1471 1472 1472 1473 1474 1476 1478 1480 1482 1485 1488 1491 1493 1496 1498 1500 1502 1503 1504 1505 1505 1506 1506 1506 1505 1504 1504 1503
1488 1484 1489 1496 1489 1485 1488 1490 1492 1491 1490 1487 1484 1477 1467 1466 1466 1467 1468 1469 1471 1472 1474 1476 1478 1481 1484 1487 1490 1493 1495 1497 1499 1500 1502 1503 1504 1504 1504 1504 1504 1503 1503 1502
1487 1484 1481 1481 1481 1484 1484 1484 1486 1487 1481 1481 1474 1470 1464 1461 1461 1462 1463 1464 1466 1467 1469 1471 1474 1477 1480 1483 1486 1489 1491 1494 1496 1498 1499 1500 1502 1502 1502 1502 1502 1501 1501 1501
1486 1484 1482 1482 1479 1482 1482 1478 1477 1478 1476 1474 1471 1466 1458 1457 1457 1457 1458 1459 1459 1461 1463 1466 1468 1472 1475 1477 1481 1484 1487 1490 1492 1494 1496 1498 1499 1499 1500 1500 1500 1500 1500 1499
1484 1484 1485 1483 1477 1481 1479 1469 1469 1469 1467 1468 1467 1459 1454 1453 1452 1453 1452 1453 1453 1454 1457 1460 1463 1466 1469 1473 1476 1480 1483 1486 1489 1491 1493 1495 1496 1497 1497 1498 1498 1498 1497 1497
1483 1483 1483 1482 1482 1489 1468 1461 1464 1465 1463 1462 1461 1457 1454 1452 1449 1448 1447 1447 1447 1449 1451 1454 1457 1461 1465 1469 1472 1476 1479 1482 1485 1488 1490 1491 1492 1493 1494 1495 1495 1495 1495 1494
1483 1482 1482 1481 1482 1475 1463 1459 1462 1463 1461 1460 1458 1456 1453 1449 1445 1441 1441 1442 1442 1444 1446 1449 1453 1457 1461 1464 1468 1472 1475 1478 1481 1484 1486 1488 1489 1490 1491 1491 1492 1492 1492 1491
1483 1481 1479 1479 1483 1479 1463 1459 1460 1462 1461 1462 1459 1456 1453 1449 1444 1439 1440 1439 1439 1440 1442 1445 1448 1453 1456 1460 1464 1468 1471 1474 1477 1480 1482 1484 1485 1486 1487 1488 1488 1488 1488 1487
1479 1479 1479 1475 1475 1465 1459 1461 1461 1466 1465 1463 1461 1458 1455 1452 1449 1446 1441 1438 1437 1437 1439 1442 1445 1448 1452 1455 1459 1463 1467 1470 1473 1476 1478 1480 1481 1482 1483 1484 1484 1484 1483 1483
1471 1471 1471 1470 1473 1468 1462 1461 1462 1464 1464 1463 1460 1458 1455 1451 1447 1443 1439 1437 1435 1435 1437 1439 1441 1445 1448 1451 1455 1459 1462 1466 1469 1471 1474 1476 1477 1478 1479 1479 1480 1479 1479 1478
1471 1468 1465 1465 1464 1463 1465 1465 1466 1466 1464 1462 1460 1457 1454 1449 1445 1441 1438 1436 1434 1434 1435 1436 1439 1441 1444 1447 1451 1455 1458 1461 1464 1467 1469 1472 1473 1474 1475 1476 1476 1475 1475 1475
1468 1471 1469 1465 1460 1463 1464 1465 1465 1464 1463 1461 1458 1455 1452 1448 1444 1440 1437 1434 1432 1432 1432 1433 1435 1437 1440 1443 1446 1450 1453 1456 1460 1463 1465 1467 1469 1470 1471 1471 1472 1471 1471 1471
1472 1471 1467 1464 1461 1462 1461 1463 1463 1462 1460 1457 1455 1452 1449 1445 1441 1438 1435 1432 1430 1429 1429 1429 1431 1433 1436 1438 1441 1445 1448 1452 1455 1458 1461 1463 1465 1466 1467 1467 1467 1467 1467 1467
1471 1470 1467 1462 1463 1463 1461 1461 1460 1458 1455 1453 1450 1447 1445 1442 1438 1434 1431 1428 1426 1424 1424 1425 1426 1428 1430 1433 1436 1439 1443 1447 1450 1453 1456 1458 1460 1461 1463 1463 1463 1463 1464 1464